Messina, Italy

5:19 AM CEST on August 27, 2016 (GMT +0200)
Messina

Weather History for LICF - January, 2013

Change the Weather History Date:

Thursday, January 17, 2013

  Actual Average (LICR) Record (LICR)
Temperature  
Mean Temperature 54 °F -  
Max Temperature 60 °F 59 °F 66 °F (2015)
Min Temperature 48 °F 49 °F 39 °F (1999)
Degree Days  
Heating Degree Days 11    
Growing Degree Days 4 (Base 50)    
Moisture  
Dew Point 44 °F    
Average Humidity 70    
Maximum Humidity 93    
Minimum Humidity 38    
Precipitation  
Precipitation 0.08 in 0.14 in - ()
Sea Level Pressure  
Sea Level Pressure 29.52 in    
Wind  
Wind Speed 6 mph ()    
Max Wind Speed 14 mph    
Max Gust Speed 33 mph    
Visibility 6.1 miles    
Events Rain    
Averages and records for this station are not official NWS values.
T = Trace of Precipitation, MM = Missing Value Source: Averaged Metar Reports

Daily Weather History Graph

Daily Weather History Graph

Search for Another Location

Airport or City:

Trip Planner

Search our weather history database for the weather conditions in past years. The results will help you decide how hot, cold, wet, or windy it might be!

Date:

Astronomy

Jan. 17, 2013 Rise Set
Actual Time 7:12 AM CET 5:03 PM CET
Civil Twilight 6:43 AM CET 5:32 PM CET
Nautical Twilight 6:11 AM CET 6:05 PM CET
Astronomical Twilight 5:39 AM CET 6:36 PM CET
Moon 10:16 AM CET (1/17) 11:31 PM CET (1/17)
Length of Visible Light 10h 49m
Length of Day
9h 51m
Waxing Crescent, 35% of the Moon is Illuminated
Jan 17
Waxing Crescent
Jan 19
First Quarter
Jan 27
Full
Feb 3
Last Quarter
Feb 10
New

Hourly Weather History & Observations

Time (CET) Temp. Dew Point Humidity Pressure Visibility Wind Dir Wind Speed Gust Speed Precip Events Conditions
12:55 AM 48.2 °F 46.4 °F 93% 29.65 in 6.2 mi West 3.5 mph - N/A   Mostly Cloudy
1:00 AM 49 °F 46 °F 83% 29.67 in 6 mi West 3.5 mph - - Rain Light Rain
1:55 AM 50.0 °F 44.6 °F 82% 29.62 in 6.2 mi WSW 2.3 mph - N/A   Mostly Cloudy
2:55 AM 48.2 °F 46.4 °F 93% 29.62 in 6.2 mi West 4.6 mph - N/A   Mostly Cloudy
3:55 AM 50.0 °F 46.4 °F 87% 29.59 in 6.2 mi West 2.3 mph - N/A   Mostly Cloudy
4:55 AM 50.0 °F 46.4 °F 87% 29.56 in 6.2 mi West 4.6 mph - N/A   Mostly Cloudy
5:55 AM 51.8 °F 44.6 °F 76% 29.56 in 6.2 mi WSW 8.1 mph - N/A   Mostly Cloudy
6:55 AM 53.6 °F 44.6 °F 72% 29.56 in 5.0 mi West 4.6 mph - N/A Rain Light Rain
8:55 AM 55.4 °F 44.6 °F 67% 29.56 in 6.2 mi WSW 5.8 mph - N/A   Mostly Cloudy
10:55 AM 59.0 °F 46.4 °F 63% 29.53 in 6.2 mi SW 10.4 mph - N/A   Partly Cloudy
11:55 AM 59.0 °F 46.4 °F 63% 29.50 in 6.2 mi SSW 10.4 mph - N/A   Mostly Cloudy
12:55 PM 59.0 °F 48.2 °F 67% 29.47 in 6.2 mi SW 11.5 mph - N/A   Scattered Clouds
1:00 PM 59 °F 49 °F 59% 29.49 in 6 mi SW 11.5 mph - -   Partly Cloudy
1:55 PM 59.0 °F 48.2 °F 67% 29.47 in 6.2 mi SW 9.2 mph - N/A   Scattered Clouds
2:55 PM 59.0 °F 48.2 °F 67% 29.44 in 6.2 mi SW 6.9 mph - N/A   Scattered Clouds
5:55 PM 53.6 °F 46.4 °F 77% 29.44 in 6.2 mi WNW 11.5 mph - N/A   Mostly Cloudy
6:55 PM 53.6 °F 41.0 °F 62% 29.44 in 6.2 mi NW 13.8 mph 28.8 mph N/A   Mostly Cloudy
7:00 PM 54 °F 41 °F 52% 29.47 in 6 mi NW 13.8 mph - - Rain Light Rain
7:55 PM 53.6 °F 33.8 °F 47% 29.47 in 6.2 mi WNW 11.5 mph 32.2 mph N/A   Mostly Cloudy
8:55 PM 53.6 °F 28.4 °F 38% 29.47 in 6.2 mi Variable 2.3 mph - N/A   Partly Cloudy
9:55 PM 53.6 °F 37.4 °F 54% 29.47 in 6.2 mi NW 8.1 mph 19.6 mph N/A   Scattered Clouds
10:55 PM 50.0 °F 41.0 °F 71% 29.50 in 5.6 mi ENE 12.7 mph 25.3 mph N/A Rain Light Rain
11:55 PM 48.2 °F 41.0 °F 76% 29.47 in 6.2 mi WNW 12.7 mph 33.4 mph N/A   Scattered Clouds